Location: Maccacari
(45.1333°N, 11.1333°E)
Time: 00:36:06
(UTC+00:00)

Tiros 1 despin weight - Pass Details

Date: 28 January 2021
Orbit: 593 x 642 km, 48.2° (Epoch: 07 March)

Event Time Altitude Azimuth Distance (km) Brightness Sun altitude
Rises 11:15:35 0° 211° (SSW) 2,908 ? 26.7°
Reaches altitude 10° 11:18:10 10° 199° (SSW) 1,996 ? 26.8°
Maximum altitude 11:22:02 27° 142° (SE) 1,191 ? 26.8°
Drops below altitude 10° 11:25:53 10° 84° (E) 1,979 ? 26.8°
Sets 11:28:26 0° 72° (ENE) 2,877 ? 26.8°
